IRIDIUM 179

Last updated on Fri Sep 11 2026 00:03:06 GMT+0000 (Coordinated Universal Time)

1 56730U 23068W 26253.56196499 .00000756 00000+0 96457-4 0 9999 2 56730 86.6837 358.9330 0002374 90.8658 269.2836 14.80044447178990
UTC large
Height (km)
Speed (km/s)
/
Latitude / Longitude
Inclination (degrees)
Orbital Period (minutes)
Azimuth
Elevation
Range (km)
Doppler Factor

Next 0 passes for location: London (51.5072 / 0.1276)

No passes found over London.
IRIDIUM 179